Back to catalog

STARLINK-4096

AliveCommunicationsVLEO
NORAD 53160·PAYLOAD·🇺🇸 United States

Launched Jul 17, 2022 from Cape Canaveral Space Force Station

Loading…

Next Passes (next 24 hours)

TLE

FreshSource: CelesTrak SupGP

Epoch: Sep 14, 2026, 14:25 UTC

1 53160C 22083AE  26257.60118056 -.00687700  00000+0 -20177-1 0  2573
2 53160  53.1598  30.9514 0001285  83.5161 234.6055 15.34953966    17

Track STARLINK-4096 in real time with AllMySat

Download on the App Store